Time,TemperatureF,DewpointF,PressureIn,WindDirection,WindDirectionDegrees,WindSpeedMPH,WindSpeedGustMPH,Humidity,HourlyPrecipIn,Conditions,Clouds,dailyrainin,SoftwareType,DateUTC
2013-02-18 00:01:00,23.8,7.8,30.18,West,264,3.0,3.0,50,0.00,,,0.00,Wunderground v.1.15,2013-02-18 05:01:00,
2013-02-18 00:02:00,23.8,7.8,30.18,NW,326,3.0,8.0,50,0.00,,,0.00,Wunderground v.1.15,2013-02-18 05:02:00,
2013-02-18 00:07:00,23.8,7.8,30.18,NW,318,3.0,8.0,50,0.00,,,0.00,Wunderground v.1.15,2013-02-18 05:07:00,
2013-02-18 00:12:00,23.8,7.4,30.18,NW,311,4.0,4.0,49,0.00,,,0.00,Wunderground v.1.15,2013-02-18 05:12:00,
2013-02-18 00:14:00,23.8,7.4,30.18,NNE,13,4.0,9.0,49,0.00,,,0.00,Wunderground v.1.15,2013-02-18 05:14:00,
2013-02-18 00:19:00,23.8,7.4,30.18,WNW,285,6.0,9.0,49,0.00,,,0.00,Wunderground v.1.15,2013-02-18 05:19:00,
2013-02-18 00:24:00,23.8,7.4,30.18,NW,305,6.0,16.0,49,0.00,,,0.00,Wunderground v.1.15,2013-02-18 05:24:00,
2013-02-18 00:29:00,23.8,7.4,30.18,WNW,285,4.0,16.0,49,0.00,,,0.00,Wunderground v.1.15,2013-02-18 05:29:00,
2013-02-18 00:34:00,23.8,7.8,30.18,NNW,332,3.0,7.0,50,0.00,,,0.00,Wunderground v.1.15,2013-02-18 05:34:00,
2013-02-18 00:39:00,23.8,7.8,30.18,West,271,4.0,7.0,50,0.00,,,0.00,Wunderground v.1.15,2013-02-18 05:39:00,
2013-02-18 00:44:00,23.8,7.8,30.18,WNW,282,4.0,8.0,50,0.00,,,0.00,Wunderground v.1.15,2013-02-18 05:44:00,
2013-02-18 00:49:00,23.6,7.7,30.18,NW,313,3.0,8.0,50,0.00,,,0.00,Wunderground v.1.15,2013-02-18 05:49:00,
2013-02-18 00:54:00,23.6,7.7,30.18,NNW,344,2.0,3.0,50,0.00,,,0.00,Wunderground v.1.15,2013-02-18 05:54:00,
2013-02-18 00:59:00,23.6,7.7,30.20,North,0,1.0,4.0,50,0.00,,,0.00,Wunderground v.1.15,2013-02-18 05:59:00,
2013-02-18 01:05:00,23.5,7.6,30.20,West,268,1.0,4.0,50,0.00,,,0.00,Wunderground v.1.15,2013-02-18 06:05:00,
2013-02-18 01:10:00,23.5,8.0,30.20,NNW,337,1.0,1.0,51,0.00,,,0.00,Wunderground v.1.15,2013-02-18 06:10:00,
2013-02-18 01:16:00,23.3,7.8,30.20,NNW,346,2.0,7.0,51,0.00,,,0.00,Wunderground v.1.15,2013-02-18 06:16:00,
2013-02-18 01:21:00,23.3,7.4,30.20,WNW,302,3.0,9.0,50,0.00,,,0.00,Wunderground v.1.15,2013-02-18 06:21:00,
2013-02-18 01:27:00,23.2,7.3,30.20,NW,320,1.0,9.0,50,0.00,,,0.00,Wunderground v.1.15,2013-02-18 06:27:00,
2013-02-18 01:32:00,23.2,6.8,30.20,WNW,295,2.0,8.0,49,0.00,,,0.00,Wunderground v.1.15,2013-02-18 06:32:00,
2013-02-18 01:37:00,23.2,6.8,30.20,NNW,329,2.0,9.0,49,0.00,,,0.00,Wunderground v.1.15,2013-02-18 06:37:00,
2013-02-18 01:42:00,23.2,6.4,30.20,NW,326,2.0,2.0,48,0.00,,,0.00,Wunderground v.1.15,2013-02-18 06:42:00,
2013-02-18 01:48:00,23.2,6.4,30.20,NW,319,2.0,4.0,48,0.00,,,0.00,Wunderground v.1.15,2013-02-18 06:48:00,
2013-02-18 01:53:00,23.0,6.2,30.20,NW,315,1.0,4.0,48,0.00,,,0.00,Wunderground v.1.15,2013-02-18 06:53:00,
2013-02-18 01:58:00,23.0,6.2,30.20,WNW,292,1.0,6.0,48,0.00,,,0.00,Wunderground v.1.15,2013-02-18 06:58:00,
2013-02-18 02:03:00,22.9,6.6,30.21,NW,313,1.0,4.0,49,0.00,,,0.00,Wunderground v.1.15,2013-02-18 07:03:00,
2013-02-18 02:08:00,22.9,6.6,30.21,NNW,333,1.0,6.0,49,0.00,,,0.00,Wunderground v.1.15,2013-02-18 07:08:00,
2013-02-18 02:14:00,22.9,6.6,30.21,NW,315,2.0,7.0,49,0.00,,,0.00,Wunderground v.1.15,2013-02-18 07:14:00,
2013-02-18 02:19:00,22.7,6.4,30.21,South,176,1.0,7.0,49,0.00,,,0.00,Wunderground v.1.15,2013-02-18 07:19:00,
2013-02-18 02:24:00,22.7,6.4,30.21,NW,305,2.0,4.0,49,0.00,,,0.00,Wunderground v.1.15,2013-02-18 07:24:00,
2013-02-18 02:29:00,22.5,6.2,30.22,West,280,3.0,8.0,49,0.00,,,0.00,Wunderground v.1.15,2013-02-18 07:29:00,
2013-02-18 02:34:00,22.5,6.2,30.22,NW,313,2.0,6.0,49,0.00,,,0.00,Wunderground v.1.15,2013-02-18 07:34:00,
2013-02-18 02:39:00,22.5,6.2,30.22,North,0,2.0,7.0,49,0.00,,,0.00,Wunderground v.1.15,2013-02-18 07:39:00,
2013-02-18 02:44:00,22.4,6.1,30.23,NW,308,2.0,2.0,49,0.00,,,0.00,Wunderground v.1.15,2013-02-18 07:44:00,
2013-02-18 02:50:00,22.4,6.1,30.23,West,272,0.0,0.0,49,0.00,,,0.00,Wunderground v.1.15,2013-02-18 07:50:00,
2013-02-18 02:55:00,22.2,5.9,30.23,NW,319,0.0,4.0,49,0.00,,,0.00,Wunderground v.1.15,2013-02-18 07:55:00,
2013-02-18 03:01:00,22.2,5.9,30.23,NW,305,1.0,1.0,49,0.00,,,0.00,Wunderground v.1.15,2013-02-18 08:01:00,
2013-02-18 03:06:00,22.1,6.3,30.23,WNW,292,1.0,1.0,50,0.00,,,0.00,Wunderground v.1.15,2013-02-18 08:06:00,
2013-02-18 03:11:00,22.1,6.3,30.23,WNW,298,1.0,2.0,50,0.00,,,0.00,Wunderground v.1.15,2013-02-18 08:11:00,
2013-02-18 03:16:00,21.9,6.1,30.23,WNW,296,1.0,2.0,50,0.00,,,0.00,Wunderground v.1.15,2013-02-18 08:16:00,
2013-02-18 03:21:00,21.9,6.1,30.23,West,274,1.0,1.0,50,0.00,,,0.00,Wunderground v.1.15,2013-02-18 08:21:00,
2013-02-18 03:26:00,21.8,6.4,30.23,West,274,1.0,4.0,51,0.00,,,0.00,Wunderground v.1.15,2013-02-18 08:26:00,
2013-02-18 03:31:00,21.8,6.4,30.23,West,278,1.0,1.0,51,0.00,,,0.00,Wunderground v.1.15,2013-02-18 08:31:00,
2013-02-18 03:37:00,21.6,6.2,30.23,WNW,288,2.0,6.0,51,0.00,,,0.00,Wunderground v.1.15,2013-02-18 08:37:00,
2013-02-18 03:42:00,21.6,6.7,30.23,WNW,289,2.0,6.0,52,0.00,,,0.00,Wunderground v.1.15,2013-02-18 08:42:00,
2013-02-18 03:47:00,21.4,6.5,30.23,West,281,2.0,6.0,52,0.00,,,0.00,Wunderground v.1.15,2013-02-18 08:47:00,
2013-02-18 03:52:00,21.4,6.9,30.23,SSW,206,1.0,2.0,53,0.00,,,0.00,Wunderground v.1.15,2013-02-18 08:52:00,
2013-02-18 03:57:00,21.4,6.9,30.23,West,277,1.0,2.0,53,0.00,,,0.00,Wunderground v.1.15,2013-02-18 08:57:00,
2013-02-18 04:03:00,21.3,6.8,30.24,West,264,0.0,0.0,53,0.00,,,0.00,Wunderground v.1.15,2013-02-18 09:03:00,
2013-02-18 04:08:00,21.3,6.8,30.24,West,267,0.0,1.0,53,0.00,,,0.00,Wunderground v.1.15,2013-02-18 09:08:00,
2013-02-18 04:13:00,21.1,7.0,30.24,West,278,0.0,0.0,54,0.00,,,0.00,Wunderground v.1.15,2013-02-18 09:13:00,
2013-02-18 04:18:00,21.1,7.0,30.24,WNW,282,1.0,4.0,54,0.00,,,0.00,Wunderground v.1.15,2013-02-18 09:18:00,
2013-02-18 04:23:00,21.0,6.9,30.24,WNW,282,1.0,1.0,54,0.00,,,0.00,Wunderground v.1.15,2013-02-18 09:23:00,
2013-02-18 04:28:00,21.0,7.3,30.24,West,271,1.0,2.0,55,0.00,,,0.00,Wunderground v.1.15,2013-02-18 09:28:00,
2013-02-18 04:33:00,20.8,7.2,30.25,West,281,1.0,4.0,55,0.00,,,0.00,Wunderground v.1.15,2013-02-18 09:33:00,
2013-02-18 04:38:00,20.8,7.2,30.25,West,275,1.0,4.0,55,0.00,,,0.00,Wunderground v.1.15,2013-02-18 09:38:00,
2013-02-18 04:44:00,20.6,7.4,30.25,West,280,1.0,6.0,56,0.00,,,0.00,Wunderground v.1.15,2013-02-18 09:44:00,
2013-02-18 04:49:00,20.6,7.4,30.26,West,274,1.0,6.0,56,0.00,,,0.00,Wunderground v.1.15,2013-02-18 09:49:00,
2013-02-18 04:54:00,20.5,7.3,30.26,West,275,0.0,1.0,56,0.00,,,0.00,Wunderground v.1.15,2013-02-18 09:54:00,
2013-02-18 04:59:00,20.5,7.3,30.26,West,271,0.0,1.0,56,0.00,,,0.00,Wunderground v.1.15,2013-02-18 09:59:00,
2013-02-18 05:04:00,20.5,7.3,30.27,West,271,0.0,0.0,56,0.00,,,0.00,Wunderground v.1.15,2013-02-18 10:04:00,
2013-02-18 05:10:00,20.3,7.5,30.27,West,270,0.0,0.0,57,0.00,,,0.00,Wunderground v.1.15,2013-02-18 10:10:00,
2013-02-18 05:15:00,20.2,7.4,30.27,West,270,0.0,4.0,57,0.00,,,0.00,Wunderground v.1.15,2013-02-18 10:15:00,
2013-02-18 05:20:00,20.2,7.4,30.27,West,281,0.0,0.0,57,0.00,,,0.00,Wunderground v.1.15,2013-02-18 10:20:00,
2013-02-18 05:25:00,20.0,7.2,30.27,NW,306,1.0,7.0,57,0.00,,,0.00,Wunderground v.1.15,2013-02-18 10:25:00,
2013-02-18 05:30:00,20.0,7.2,30.28,WNW,295,1.0,1.0,57,0.00,,,0.00,Wunderground v.1.15,2013-02-18 10:30:00,
2013-02-18 05:35:00,20.0,7.2,30.28,West,270,1.0,1.0,57,0.00,,,0.00,Wunderground v.1.15,2013-02-18 10:35:00,
2013-02-18 05:42:00,20.2,7.4,30.28,West,277,1.0,1.0,57,0.00,,,0.00,Wunderground v.1.15,2013-02-18 10:42:00,
2013-02-18 05:47:00,20.2,7.4,30.29,West,275,0.0,1.0,57,0.00,,,0.00,Wunderground v.1.15,2013-02-18 10:47:00,
2013-02-18 05:52:00,20.2,7.4,30.29,West,275,0.0,0.0,57,0.00,,,0.00,Wunderground v.1.15,2013-02-18 10:52:00,
2013-02-18 05:58:00,20.2,7.4,30.29,West,275,0.0,0.0,57,0.00,,,0.00,Wunderground v.1.15,2013-02-18 10:58:00,
2013-02-18 06:03:00,20.2,7.4,30.29,West,275,0.0,0.0,57,0.00,,,0.00,Wunderground v.1.15,2013-02-18 11:03:00,
2013-02-18 06:09:00,20.0,7.2,30.29,West,275,0.0,0.0,57,0.00,,,0.00,Wunderground v.1.15,2013-02-18 11:09:00,
2013-02-18 06:15:00,20.0,7.6,30.30,WNW,294,0.0,0.0,58,0.00,,,0.00,Wunderground v.1.15,2013-02-18 11:15:00,
2013-02-18 06:20:00,19.9,7.5,30.30,West,281,0.0,0.0,58,0.00,,,0.00,Wunderground v.1.15,2013-02-18 11:20:00,
2013-02-18 06:25:00,19.7,7.3,30.30,WNW,287,1.0,1.0,58,0.00,,,0.00,Wunderground v.1.15,2013-02-18 11:25:00,
2013-02-18 06:30:00,19.7,7.3,30.30,WNW,287,0.0,0.0,58,0.00,,,0.00,Wunderground v.1.15,2013-02-18 11:30:00,
2013-02-18 06:36:00,19.5,7.5,30.30,West,275,1.0,7.0,59,0.00,,,0.00,Wunderground v.1.15,2013-02-18 11:36:00,
2013-02-18 06:41:00,19.5,7.1,30.30,West,275,1.0,1.0,58,0.00,,,0.00,Wunderground v.1.15,2013-02-18 11:41:00,
2013-02-18 06:46:00,19.5,7.1,30.31,West,267,1.0,4.0,58,0.00,,,0.00,Wunderground v.1.15,2013-02-18 11:46:00,
2013-02-18 06:52:00,19.7,7.3,30.31,NW,319,1.0,6.0,58,0.00,,,0.00,Wunderground v.1.15,2013-02-18 11:52:00,
2013-02-18 06:57:00,19.9,7.1,30.31,West,263,2.0,6.0,57,0.00,,,0.00,Wunderground v.1.15,2013-02-18 11:57:00,
2013-02-18 07:02:00,19.9,7.1,30.31,West,270,2.0,4.0,57,0.00,,,0.00,Wunderground v.1.15,2013-02-18 12:02:00,
2013-02-18 07:07:00,20.0,7.2,30.31,NW,319,1.0,4.0,57,0.00,,,0.00,Wunderground v.1.15,2013-02-18 12:07:00,
2013-02-18 07:12:00,20.2,7.4,30.31,West,271,1.0,1.0,57,0.00,,,0.00,Wunderground v.1.15,2013-02-18 12:12:00,
2013-02-18 07:17:00,20.3,7.5,30.32,West,272,2.0,7.0,57,0.00,,,0.00,Wunderground v.1.15,2013-02-18 12:17:00,
2013-02-18 07:23:00,20.3,7.1,30.32,WNW,289,2.0,9.0,56,0.00,,,0.00,Wunderground v.1.15,2013-02-18 12:23:00,
2013-02-18 07:29:00,20.5,7.3,30.32,WNW,282,2.0,9.0,56,0.00,,,0.00,Wunderground v.1.15,2013-02-18 12:29:00,
2013-02-18 07:34:00,20.6,7.4,30.32,NW,311,0.0,1.0,56,0.00,,,0.00,Wunderground v.1.15,2013-02-18 12:34:00,
2013-02-18 07:40:00,20.6,7.4,30.32,WSW,254,0.0,0.0,56,0.00,,,0.00,Wunderground v.1.15,2013-02-18 12:40:00,
2013-02-18 07:46:00,20.8,7.6,30.33,West,268,0.0,0.0,56,0.00,,,0.00,Wunderground v.1.15,2013-02-18 12:46:00,
2013-02-18 07:51:00,21.0,7.3,30.33,WNW,289,1.0,4.0,55,0.00,,,0.00,Wunderground v.1.15,2013-02-18 12:51:00,
2013-02-18 07:56:00,21.1,7.4,30.33,WNW,282,1.0,4.0,55,0.00,,,0.00,Wunderground v.1.15,2013-02-18 12:56:00,
2013-02-18 08:02:00,21.3,7.2,30.34,NW,315,1.0,4.0,54,0.00,,,0.00,Wunderground v.1.15,2013-02-18 13:02:00,
2013-02-18 08:07:00,21.6,7.1,30.34,WNW,302,3.0,6.0,53,0.00,,,0.00,Wunderground v.1.15,2013-02-18 13:07:00,
2013-02-18 08:12:00,21.9,7.4,30.34,NW,323,3.0,6.0,53,0.00,,,0.00,Wunderground v.1.15,2013-02-18 13:12:00,
2013-02-18 08:17:00,22.1,7.1,30.34,WNW,282,2.0,6.0,52,0.00,,,0.00,Wunderground v.1.15,2013-02-18 13:17:00,
2013-02-18 08:23:00,22.4,7.4,30.34,NW,311,1.0,2.0,52,0.00,,,0.00,Wunderground v.1.15,2013-02-18 13:23:00,
2013-02-18 08:28:00,22.5,7.1,30.34,WNW,298,1.0,6.0,51,0.00,,,0.00,Wunderground v.1.15,2013-02-18 13:28:00,
2013-02-18 08:33:00,22.9,7.0,30.35,NW,325,3.0,9.0,50,0.00,,,0.00,Wunderground v.1.15,2013-02-18 13:33:00,
2013-02-18 08:39:00,23.0,6.7,30.35,West,263,3.0,13.0,49,0.00,,,0.00,Wunderground v.1.15,2013-02-18 13:39:00,
2013-02-18 08:44:00,23.3,6.9,30.35,West,265,3.0,4.0,49,0.00,,,0.00,Wunderground v.1.15,2013-02-18 13:44:00,
2013-02-18 08:49:00,23.5,7.1,30.35,NW,309,3.0,7.0,49,0.00,,,0.00,Wunderground v.1.15,2013-02-18 13:49:00,
2013-02-18 08:54:00,23.8,7.4,30.35,WNW,285,4.0,6.0,49,0.00,,,0.00,Wunderground v.1.15,2013-02-18 13:54:00,
2013-02-18 09:01:00,24.1,7.2,30.35,NW,318,5.0,6.0,48,0.00,,,0.00,Wunderground v.1.15,2013-02-18 14:01:00,
2013-02-18 09:06:00,24.2,7.3,30.35,WNW,285,3.0,8.0,48,0.00,,,0.00,Wunderground v.1.15,2013-02-18 14:06:00,
2013-02-18 09:12:00,24.5,7.6,30.35,NW,319,3.0,10.0,48,0.00,,,0.00,Wunderground v.1.15,2013-02-18 14:12:00,
2013-02-18 09:17:00,24.8,6.9,30.35,NNW,332,4.0,10.0,46,0.00,,,0.00,Wunderground v.1.15,2013-02-18 14:17:00,
2013-02-18 09:22:00,25.1,6.7,30.35,WNW,284,3.0,4.0,45,0.00,,,0.00,Wunderground v.1.15,2013-02-18 14:22:00,
2013-02-18 09:27:00,25.6,7.2,30.35,NW,309,2.0,6.0,45,0.00,,,0.00,Wunderground v.1.15,2013-02-18 14:27:00,
2013-02-18 09:32:00,25.7,6.8,30.35,NNW,347,2.0,7.0,44,0.00,,,0.00,Wunderground v.1.15,2013-02-18 14:32:00,
2013-02-18 09:38:00,26.6,7.1,30.35,North,0,3.0,7.0,43,0.00,,,0.00,Wunderground v.1.15,2013-02-18 14:38:00,
2013-02-18 09:44:00,26.9,7.4,30.35,NNW,342,4.0,8.0,43,0.00,,,0.00,Wunderground v.1.15,2013-02-18 14:44:00,
2013-02-18 09:49:00,27.2,7.1,30.34,NW,311,4.0,8.0,42,0.00,,,0.00,Wunderground v.1.15,2013-02-18 14:49:00,
2013-02-18 09:54:00,27.9,7.2,30.34,NNW,336,2.0,3.0,41,0.00,,,0.00,Wunderground v.1.15,2013-02-18 14:54:00,
2013-02-18 10:00:00,28.1,6.8,30.34,West,278,3.0,3.0,40,0.00,,,0.00,Wunderground v.1.15,2013-02-18 15:00:00,
2013-02-18 10:06:00,28.4,6.6,30.34,NNW,332,3.0,6.0,39,0.00,,,0.00,Wunderground v.1.15,2013-02-18 15:06:00,
2013-02-18 10:11:00,29.3,6.8,30.34,North,353,1.0,2.0,38,0.00,,,0.00,Wunderground v.1.15,2013-02-18 15:11:00,
2013-02-18 10:17:00,29.3,6.8,30.35,WSW,246,2.0,11.0,38,0.00,,,0.00,Wunderground v.1.15,2013-02-18 15:17:00,
2013-02-18 10:22:00,29.4,6.9,30.35,North,0,2.0,2.0,38,0.00,,,0.00,Wunderground v.1.15,2013-02-18 15:22:00,
2013-02-18 10:27:00,29.8,7.2,30.35,NW,309,1.0,4.0,38,0.00,,,0.00,Wunderground v.1.15,2013-02-18 15:27:00,
2013-02-18 10:33:00,30.7,6.2,30.34,West,281,2.0,4.0,35,0.00,,,0.00,Wunderground v.1.15,2013-02-18 15:33:00,
2013-02-18 10:38:00,30.9,8.2,30.34,WNW,301,4.0,9.0,38,0.00,,,0.00,Wunderground v.1.15,2013-02-18 15:38:00,
2013-02-18 10:43:00,31.0,6.5,30.34,WSW,250,5.0,5.0,35,0.00,,,0.00,Wunderground v.1.15,2013-02-18 15:43:00,
2013-02-18 10:48:00,31.0,6.5,30.34,WNW,302,3.0,8.0,35,0.00,,,0.00,Wunderground v.1.15,2013-02-18 15:48:00,
2013-02-18 10:53:00,30.7,6.2,30.34,NNW,329,2.0,6.0,35,0.00,,,0.00,Wunderground v.1.15,2013-02-18 15:53:00,
2013-02-18 10:59:00,30.7,6.9,30.34,NW,316,2.0,6.0,36,0.00,,,0.00,Wunderground v.1.15,2013-02-18 15:59:00,
2013-02-18 11:04:00,31.9,7.9,30.34,North,353,1.0,2.0,36,0.00,,,0.00,Wunderground v.1.15,2013-02-18 16:04:00,
2013-02-18 11:09:00,31.5,6.3,30.34,WNW,301,2.0,8.0,34,0.00,,,0.00,Wunderground v.1.15,2013-02-18 16:09:00,
2013-02-18 11:14:00,31.5,7.6,30.33,WSW,241,3.0,3.0,36,0.00,,,0.00,Wunderground v.1.15,2013-02-18 16:14:00,
2013-02-18 11:19:00,32.4,7.1,30.33,WNW,289,3.0,7.0,34,0.00,,,0.00,Wunderground v.1.15,2013-02-18 16:19:00,
2013-02-18 11:25:00,31.8,5.9,30.33,WNW,295,4.0,7.0,33,0.00,,,0.00,Wunderground v.1.15,2013-02-18 16:25:00,
2013-02-18 11:30:00,31.8,5.9,30.33,West,265,4.0,4.0,33,0.00,,,0.00,Wunderground v.1.15,2013-02-18 16:30:00,
2013-02-18 11:35:00,32.7,7.4,30.33,WSW,247,2.0,4.0,34,0.00,,,0.00,Wunderground v.1.15,2013-02-18 16:35:00,
2013-02-18 11:40:00,33.4,8.0,30.33,WSW,237,2.0,4.0,34,0.00,,,0.00,Wunderground v.1.15,2013-02-18 16:40:00,
2013-02-18 11:45:00,34.1,9.3,30.32,West,267,2.0,6.0,35,0.00,,,0.00,Wunderground v.1.15,2013-02-18 16:45:00,
2013-02-18 11:52:00,33.1,6.4,30.32,West,263,1.0,4.0,32,0.00,,,0.00,Wunderground v.1.15,2013-02-18 16:52:00,
2013-02-18 11:57:00,33.4,6.7,30.32,NW,306,1.0,4.0,32,0.00,,,0.00,Wunderground v.1.15,2013-02-18 16:57:00,
2013-02-18 12:02:00,33.4,7.3,30.31,North,0,2.0,2.0,33,0.00,,,0.00,Wunderground v.1.15,2013-02-18 17:02:00,
2013-02-18 12:07:00,33.4,6.0,30.31,NNW,329,1.0,9.0,31,0.00,,,0.00,Wunderground v.1.15,2013-02-18 17:07:00,
2013-02-18 12:12:00,34.1,5.9,30.31,SW,233,2.0,7.0,30,0.00,,,0.00,Wunderground v.1.15,2013-02-18 17:12:00,
2013-02-18 12:17:00,34.1,9.3,30.31,South,188,3.0,7.0,35,0.00,,,0.00,Wunderground v.1.15,2013-02-18 17:17:00,
2013-02-18 12:23:00,35.0,6.6,30.31,NW,320,1.0,7.0,30,0.00,,,0.00,Wunderground v.1.15,2013-02-18 17:23:00,
2013-02-18 12:28:00,35.2,7.5,30.31,West,280,2.0,7.0,31,0.00,,,0.00,Wunderground v.1.15,2013-02-18 17:28:00,
2013-02-18 12:33:00,35.8,8.1,30.29,SW,226,2.0,6.0,31,0.00,,,0.00,Wunderground v.1.15,2013-02-18 17:33:00,
2013-02-18 12:38:00,35.5,6.3,30.29,NW,306,2.0,6.0,29,0.00,,,0.00,Wunderground v.1.15,2013-02-18 17:38:00,
2013-02-18 12:43:00,35.0,7.4,30.29,SW,220,2.0,2.0,31,0.00,,,0.00,Wunderground v.1.15,2013-02-18 17:43:00,
2013-02-18 12:48:00,35.8,6.6,30.28,West,275,0.0,6.0,29,0.00,,,0.00,Wunderground v.1.15,2013-02-18 17:48:00,
2013-02-18 12:54:00,35.5,5.6,30.28,WNW,302,1.0,4.0,28,0.00,,,0.00,Wunderground v.1.15,2013-02-18 17:54:00,
2013-02-18 12:59:00,35.6,7.2,30.27,WSW,253,1.0,4.0,30,0.00,,,0.00,Wunderground v.1.15,2013-02-18 17:59:00,
2013-02-18 13:05:00,36.5,5.6,30.27,WSW,246,2.0,8.0,27,0.00,,,0.00,Wunderground v.1.15,2013-02-18 18:05:00,
2013-02-18 13:10:00,36.9,7.5,30.27,SW,215,1.0,8.0,29,0.00,,,0.00,Wunderground v.1.15,2013-02-18 18:10:00,
2013-02-18 13:15:00,37.0,7.6,30.26,South,184,1.0,8.0,29,0.00,,,0.00,Wunderground v.1.15,2013-02-18 18:15:00,
2013-02-18 13:20:00,37.0,7.6,30.26,South,181,1.0,1.0,29,0.00,,,0.00,Wunderground v.1.15,2013-02-18 18:20:00,
2013-02-18 13:27:00,36.5,5.6,30.26,SSW,210,1.0,6.0,27,0.00,,,0.00,Wunderground v.1.15,2013-02-18 18:27:00,
2013-02-18 13:33:00,37.3,7.1,30.26,WSW,251,2.0,2.0,28,0.00,,,0.00,Wunderground v.1.15,2013-02-18 18:33:00,
2013-02-18 13:38:00,38.0,7.7,30.26,South,179,2.0,2.0,28,0.00,,,0.00,Wunderground v.1.15,2013-02-18 18:38:00,
2013-02-18 13:44:00,38.3,8.0,30.25,SSW,202,1.0,1.0,28,0.00,,,0.00,Wunderground v.1.15,2013-02-18 18:44:00,
2013-02-18 13:49:00,38.5,8.2,30.25,South,184,1.0,4.0,28,0.00,,,0.00,Wunderground v.1.15,2013-02-18 18:49:00,
2013-02-18 13:55:00,39.1,8.7,30.25,SSE,148,1.0,2.0,28,0.00,,,0.00,Wunderground v.1.15,2013-02-18 18:55:00,
2013-02-18 14:01:00,39.2,9.6,30.24,SSW,212,1.0,7.0,29,0.00,,,0.00,Wunderground v.1.15,2013-02-18 19:01:00,
2013-02-18 14:06:00,39.1,7.9,30.24,SSW,195,1.0,7.0,27,0.00,,,0.00,Wunderground v.1.15,2013-02-18 19:06:00,
2013-02-18 14:13:00,39.1,7.9,30.24,WNW,291,2.0,2.0,27,0.00,,,0.00,Wunderground v.1.15,2013-02-18 19:13:00,
2013-02-18 14:19:00,39.9,9.4,30.24,SSW,213,2.0,4.0,28,0.00,,,0.00,Wunderground v.1.15,2013-02-18 19:19:00,
2013-02-18 14:25:00,39.8,9.3,30.24,SSW,195,2.0,7.0,28,0.00,,,0.00,Wunderground v.1.15,2013-02-18 19:25:00,
2013-02-18 14:31:00,40.1,8.7,30.23,SSW,205,2.0,7.0,27,0.00,,,0.00,Wunderground v.1.15,2013-02-18 19:31:00,
2013-02-18 14:39:00,40.2,8.8,30.23,SSW,210,2.0,2.0,27,0.00,,,0.00,Wunderground v.1.15,2013-02-18 19:39:00,
2013-02-18 14:44:00,40.3,9.7,30.23,South,184,1.0,2.0,28,0.00,,,0.00,Wunderground v.1.15,2013-02-18 19:44:00,
2013-02-18 14:49:00,40.3,9.7,30.23,SSW,198,2.0,4.0,28,0.00,,,0.00,Wunderground v.1.15,2013-02-18 19:49:00,
2013-02-18 14:54:00,40.3,8.9,30.23,SSW,199,3.0,8.0,27,0.00,,,0.00,Wunderground v.1.15,2013-02-18 19:54:00,
2013-02-18 14:59:00,40.1,7.9,30.22,SSW,198,3.0,8.0,26,0.00,,,0.00,Wunderground v.1.15,2013-02-18 19:59:00,
2013-02-18 15:05:00,40.3,8.9,30.22,South,184,2.0,3.0,27,0.00,,,0.00,Wunderground v.1.15,2013-02-18 20:05:00,
2013-02-18 15:10:00,40.6,9.2,30.22,SSW,198,2.0,2.0,27,0.00,,,0.00,Wunderground v.1.15,2013-02-18 20:10:00,
2013-02-18 15:16:00,40.6,10.0,30.21,SSW,198,2.0,8.0,28,0.00,,,0.00,Wunderground v.1.15,2013-02-18 20:16:00,
2013-02-18 15:23:00,40.6,10.0,30.21,ESE,102,3.0,3.0,28,0.00,,,0.00,Wunderground v.1.15,2013-02-18 20:23:00,
2013-02-18 15:28:00,40.8,10.2,30.21,SSE,151,4.0,7.0,28,0.00,,,0.00,Wunderground v.1.15,2013-02-18 20:28:00,
2013-02-18 15:34:00,40.8,10.9,30.22,South,178,3.0,3.0,29,0.00,,,0.00,Wunderground v.1.15,2013-02-18 20:34:00,
2013-02-18 15:39:00,40.6,10.0,30.22,SSW,203,3.0,7.0,28,0.00,,,0.00,Wunderground v.1.15,2013-02-18 20:39:00,
2013-02-18 15:44:00,40.6,10.0,30.21,SSE,148,3.0,7.0,28,0.00,,,0.00,Wunderground v.1.15,2013-02-18 20:44:00,
2013-02-18 15:49:00,40.6,10.0,30.21,SSW,196,3.0,4.0,28,0.00,,,0.00,Wunderground v.1.15,2013-02-18 20:49:00,
2013-02-18 15:54:00,40.6,10.0,30.21,SE,143,3.0,4.0,28,0.00,,,0.00,Wunderground v.1.15,2013-02-18 20:54:00,
2013-02-18 16:01:00,40.5,10.7,30.21,South,184,2.0,2.0,29,0.00,,,0.00,Wunderground v.1.15,2013-02-18 21:01:00,
2013-02-18 16:07:00,40.5,10.7,30.21,SSE,164,3.0,7.0,29,0.00,,,0.00,Wunderground v.1.15,2013-02-18 21:07:00,
2013-02-18 16:12:00,40.3,9.7,30.21,SSW,213,3.0,6.0,28,0.00,,,0.00,Wunderground v.1.15,2013-02-18 21:12:00,
2013-02-18 16:17:00,40.3,10.5,30.21,SSW,206,2.0,6.0,29,0.00,,,0.00,Wunderground v.1.15,2013-02-18 21:17:00,
2013-02-18 16:22:00,40.3,10.5,30.21,South,184,2.0,4.0,29,0.00,,,0.00,Wunderground v.1.15,2013-02-18 21:22:00,
2013-02-18 16:27:00,40.2,10.4,30.21,SSW,198,2.0,2.0,29,0.00,,,0.00,Wunderground v.1.15,2013-02-18 21:27:00,
2013-02-18 16:33:00,40.2,9.6,30.20,South,179,2.0,4.0,28,0.00,,,0.00,Wunderground v.1.15,2013-02-18 21:33:00,
2013-02-18 16:38:00,40.2,10.4,30.20,SSE,157,2.0,2.0,29,0.00,,,0.00,Wunderground v.1.15,2013-02-18 21:38:00,
2013-02-18 16:43:00,40.1,10.3,30.20,SE,143,1.0,2.0,29,0.00,,,0.00,Wunderground v.1.15,2013-02-18 21:43:00,
2013-02-18 16:48:00,40.1,10.3,30.20,SE,144,1.0,2.0,29,0.00,,,0.00,Wunderground v.1.15,2013-02-18 21:48:00,
2013-02-18 16:53:00,40.1,11.1,30.20,SE,137,0.0,1.0,30,0.00,,,0.00,Wunderground v.1.15,2013-02-18 21:53:00,
2013-02-18 16:59:00,39.9,10.2,30.20,South,189,1.0,4.0,29,0.00,,,0.00,Wunderground v.1.15,2013-02-18 21:59:00,
2013-02-18 17:05:00,39.8,10.1,30.20,South,184,1.0,2.0,29,0.00,,,0.00,Wunderground v.1.15,2013-02-18 22:05:00,
2013-02-18 17:10:00,39.8,10.1,30.20,SSW,192,1.0,7.0,29,0.00,,,0.00,Wunderground v.1.15,2013-02-18 22:10:00,
2013-02-18 17:16:00,39.6,9.9,30.20,SSE,155,2.0,7.0,29,0.00,,,0.00,Wunderground v.1.15,2013-02-18 22:16:00,
2013-02-18 17:21:00,39.5,9.0,30.20,SSE,164,2.0,2.0,28,0.00,,,0.00,Wunderground v.1.15,2013-02-18 22:21:00,
2013-02-18 17:26:00,39.5,9.8,30.20,SSW,212,1.0,6.0,29,0.00,,,0.00,Wunderground v.1.15,2013-02-18 22:26:00,
2013-02-18 17:31:00,39.3,9.6,30.20,SSE,165,1.0,1.0,29,0.00,,,0.00,Wunderground v.1.15,2013-02-18 22:31:00,
2013-02-18 17:37:00,39.2,9.6,30.20,South,188,1.0,2.0,29,0.00,,,0.00,Wunderground v.1.15,2013-02-18 22:37:00,
2013-02-18 17:43:00,39.1,10.2,30.20,South,169,1.0,1.0,30,0.00,,,0.00,Wunderground v.1.15,2013-02-18 22:43:00,
2013-02-18 17:48:00,38.9,10.8,30.21,South,169,0.0,0.0,31,0.00,,,0.00,Wunderground v.1.15,2013-02-18 22:48:00,
2013-02-18 17:54:00,38.8,10.7,30.21,South,169,0.0,0.0,31,0.00,,,0.00,Wunderground v.1.15,2013-02-18 22:54:00,
2013-02-18 17:59:00,38.5,10.4,30.21,South,169,0.0,0.0,31,0.00,,,0.00,Wunderground v.1.15,2013-02-18 22:59:00,
2013-02-18 18:05:00,38.0,10.0,30.21,South,169,0.0,0.0,31,0.00,,,0.00,Wunderground v.1.15,2013-02-18 23:05:00,
2013-02-18 18:10:00,37.6,11.0,30.21,South,169,0.0,0.0,33,0.00,,,0.00,Wunderground v.1.15,2013-02-18 23:10:00,
2013-02-18 18:17:00,37.2,11.4,30.22,South,169,0.0,0.0,34,0.00,,,0.00,Wunderground v.1.15,2013-02-18 23:17:00,
2013-02-18 18:23:00,36.9,11.8,30.22,South,169,0.0,0.0,35,0.00,,,0.00,Wunderground v.1.15,2013-02-18 23:23:00,
2013-02-18 18:28:00,36.6,11.5,30.22,South,169,0.0,0.0,35,0.00,,,0.00,Wunderground v.1.15,2013-02-18 23:28:00,
2013-02-18 18:33:00,36.3,11.2,30.21,South,169,0.0,0.0,35,0.00,,,0.00,Wunderground v.1.15,2013-02-18 23:33:00,
2013-02-18 18:38:00,36.2,11.8,30.21,SSE,168,0.0,0.0,36,0.00,,,0.00,Wunderground v.1.15,2013-02-18 23:38:00,
2013-02-18 18:43:00,35.9,11.5,30.21,SSE,168,0.0,0.0,36,0.00,,,0.00,Wunderground v.1.15,2013-02-18 23:43:00,
2013-02-18 18:48:00,35.8,11.4,30.21,SSE,168,0.0,0.0,36,0.00,,,0.00,Wunderground v.1.15,2013-02-18 23:48:00,
2013-02-18 18:54:00,35.5,11.8,30.21,SSE,168,0.0,0.0,37,0.00,,,0.00,Wunderground v.1.15,2013-02-18 23:54:00,
2013-02-18 19:00:00,35.2,12.1,30.21,SSE,151,0.0,0.0,38,0.00,,,0.00,Wunderground v.1.15,2013-02-19 00:00:00,
2013-02-18 19:05:00,35.0,12.5,30.21,SSE,155,0.0,0.0,39,0.00,,,0.00,Wunderground v.1.15,2013-02-19 00:05:00,
2013-02-18 19:11:00,34.9,12.4,30.21,SSE,167,0.0,0.0,39,0.00,,,0.00,Wunderground v.1.15,2013-02-19 00:11:00,
2013-02-18 19:16:00,34.7,12.2,30.21,South,169,0.0,0.0,39,0.00,,,0.00,Wunderground v.1.15,2013-02-19 00:16:00,
2013-02-18 19:21:00,34.6,12.1,30.21,SSE,158,0.0,0.0,39,0.00,,,0.00,Wunderground v.1.15,2013-02-19 00:21:00,
2013-02-18 19:26:00,34.4,12.0,30.21,SSE,158,0.0,0.0,39,0.00,,,0.00,Wunderground v.1.15,2013-02-19 00:26:00,
2013-02-18 19:32:00,34.4,12.5,30.20,SSE,154,0.0,1.0,40,0.00,,,0.00,Wunderground v.1.15,2013-02-19 00:32:00,
2013-02-18 19:37:00,34.3,12.4,30.20,SSE,151,0.0,6.0,40,0.00,,,0.00,Wunderground v.1.15,2013-02-19 00:37:00,
2013-02-18 19:42:00,34.3,12.4,30.20,SSW,192,0.0,0.0,40,0.00,,,0.00,Wunderground v.1.15,2013-02-19 00:42:00,
2013-02-18 19:48:00,34.3,12.4,30.20,SE,136,0.0,4.0,40,0.00,,,0.00,Wunderground v.1.15,2013-02-19 00:48:00,
2013-02-18 19:53:00,34.1,12.3,30.20,SE,137,0.0,0.0,40,0.00,,,0.00,Wunderground v.1.15,2013-02-19 00:53:00,
2013-02-18 19:59:00,34.1,12.3,30.20,SSE,148,0.0,0.0,40,0.00,,,0.00,Wunderground v.1.15,2013-02-19 00:59:00,
2013-02-18 20:04:00,34.0,12.7,30.20,SSE,148,0.0,0.0,41,0.00,,,0.00,Wunderground v.1.15,2013-02-19 01:04:00,
2013-02-18 20:09:00,33.8,12.6,30.20,SSE,151,0.0,0.0,41,0.00,,,0.00,Wunderground v.1.15,2013-02-19 01:09:00,
2013-02-18 20:15:00,33.7,12.5,30.19,SSE,151,0.0,0.0,41,0.00,,,0.00,Wunderground v.1.15,2013-02-19 01:15:00,
2013-02-18 20:20:00,33.5,12.3,30.19,SSE,151,0.0,0.0,41,0.00,,,0.00,Wunderground v.1.15,2013-02-19 01:20:00,
2013-02-18 20:25:00,33.4,12.7,30.19,South,185,0.0,2.0,42,0.00,,,0.00,Wunderground v.1.15,2013-02-19 01:25:00,
2013-02-18 20:30:00,33.2,12.6,30.19,South,172,0.0,0.0,42,0.00,,,0.00,Wunderground v.1.15,2013-02-19 01:30:00,
2013-02-18 20:37:00,33.1,13.0,30.19,South,172,0.0,1.0,43,0.00,,,0.00,Wunderground v.1.15,2013-02-19 01:37:00,
2013-02-18 20:42:00,32.9,12.8,30.19,SSE,147,0.0,0.0,43,0.00,,,0.00,Wunderground v.1.15,2013-02-19 01:42:00,
2013-02-18 20:47:00,32.9,13.3,30.18,South,169,0.0,0.0,44,0.00,,,0.00,Wunderground v.1.15,2013-02-19 01:47:00,
2013-02-18 20:53:00,32.9,13.9,30.18,SSE,147,0.0,1.0,45,0.00,,,0.00,Wunderground v.1.15,2013-02-19 01:53:00,
2013-02-18 20:58:00,32.9,13.9,30.18,South,181,0.0,1.0,45,0.00,,,0.00,Wunderground v.1.15,2013-02-19 01:58:00,
2013-02-18 21:04:00,32.9,14.4,30.18,South,175,0.0,2.0,46,0.00,,,0.00,Wunderground v.1.15,2013-02-19 02:04:00,
2013-02-18 21:10:00,33.1,14.5,30.18,South,182,0.0,4.0,46,0.00,,,0.00,Wunderground v.1.15,2013-02-19 02:10:00,
2013-02-18 21:15:00,33.1,14.5,30.17,SSW,199,1.0,6.0,46,0.00,,,0.00,Wunderground v.1.15,2013-02-19 02:15:00,
2013-02-18 21:20:00,33.2,14.6,30.17,SW,223,1.0,2.0,46,0.00,,,0.00,Wunderground v.1.15,2013-02-19 02:20:00,
2013-02-18 21:26:00,33.4,14.8,30.17,SSW,192,1.0,2.0,46,0.00,,,0.00,Wunderground v.1.15,2013-02-19 02:26:00,
2013-02-18 21:31:00,33.5,14.9,30.17,South,179,1.0,7.0,46,0.00,,,0.00,Wunderground v.1.15,2013-02-19 02:31:00,
2013-02-18 21:37:00,33.7,14.6,30.17,SSW,198,1.0,7.0,45,0.00,,,0.00,Wunderground v.1.15,2013-02-19 02:37:00,
2013-02-18 21:42:00,33.8,15.2,30.17,SSE,168,1.0,2.0,46,0.00,,,0.00,Wunderground v.1.15,2013-02-19 02:42:00,
2013-02-18 21:47:00,34.1,14.9,30.16,SSE,158,1.0,8.0,45,0.00,,,0.00,Wunderground v.1.15,2013-02-19 02:47:00,
2013-02-18 21:52:00,34.1,15.5,30.16,South,184,1.0,6.0,46,0.00,,,0.00,Wunderground v.1.15,2013-02-19 02:52:00,
2013-02-18 21:58:00,34.3,15.6,30.16,SSW,198,0.0,6.0,46,0.00,,,0.00,Wunderground v.1.15,2013-02-19 02:58:00,
2013-02-18 22:03:00,34.4,15.2,30.16,South,191,0.0,1.0,45,0.00,,,0.00,Wunderground v.1.15,2013-02-19 03:03:00,
2013-02-18 22:12:00,34.6,15.9,30.16,South,189,0.0,0.0,46,0.00,,,0.00,Wunderground v.1.15,2013-02-19 03:12:00,
2013-02-18 22:18:00,34.6,15.9,30.15,South,171,0.0,0.0,46,0.00,,,0.00,Wunderground v.1.15,2013-02-19 03:18:00,
2013-02-18 22:24:00,34.6,15.9,30.15,South,175,0.0,0.0,46,0.00,,,0.00,Wunderground v.1.15,2013-02-19 03:24:00,
2013-02-18 22:30:00,34.7,16.0,30.15,South,184,0.0,0.0,46,0.00,,,0.00,Wunderground v.1.15,2013-02-19 03:30:00,
2013-02-18 22:35:00,34.7,16.5,30.15,South,172,0.0,4.0,47,0.00,,,0.00,Wunderground v.1.15,2013-02-19 03:35:00,
2013-02-18 22:40:00,34.7,16.5,30.15,South,182,0.0,1.0,47,0.00,,,0.00,Wunderground v.1.15,2013-02-19 03:40:00,
2013-02-18 22:46:00,34.7,16.5,30.15,SSW,192,0.0,2.0,47,0.00,,,0.00,Wunderground v.1.15,2013-02-19 03:46:00,
2013-02-18 22:52:00,34.7,16.5,30.15,South,191,0.0,0.0,47,0.00,,,0.00,Wunderground v.1.15,2013-02-19 03:52:00,
2013-02-18 22:57:00,34.6,16.9,30.15,South,191,0.0,0.0,48,0.00,,,0.00,Wunderground v.1.15,2013-02-19 03:57:00,
2013-02-18 23:03:00,34.6,16.9,30.15,SSW,192,0.0,0.0,48,0.00,,,0.00,Wunderground v.1.15,2013-02-19 04:03:00,
2013-02-18 23:08:00,34.4,16.7,30.15,SSW,192,0.0,0.0,48,0.00,,,0.00,Wunderground v.1.15,2013-02-19 04:08:00,
2013-02-18 23:14:00,34.4,17.2,30.14,SSW,192,0.0,0.0,49,0.00,,,0.00,Wunderground v.1.15,2013-02-19 04:14:00,
2013-02-18 23:19:00,34.3,17.1,30.14,SSW,192,0.0,0.0,49,0.00,,,0.00,Wunderground v.1.15,2013-02-19 04:19:00,
2013-02-18 23:24:00,34.1,17.4,30.14,South,189,0.0,0.0,50,0.00,,,0.00,Wunderground v.1.15,2013-02-19 04:24:00,
2013-02-18 23:29:00,34.1,17.4,30.13,South,175,0.0,1.0,50,0.00,,,0.00,Wunderground v.1.15,2013-02-19 04:29:00,
2013-02-18 23:34:00,34.0,17.3,30.13,South,175,0.0,0.0,50,0.00,,,0.00,Wunderground v.1.15,2013-02-19 04:34:00,
2013-02-18 23:40:00,33.8,17.6,30.13,SSW,192,0.0,0.0,51,0.00,,,0.00,Wunderground v.1.15,2013-02-19 04:40:00,
2013-02-18 23:45:00,33.7,17.5,30.13,South,175,1.0,2.0,51,0.00,,,0.00,Wunderground v.1.15,2013-02-19 04:45:00,
2013-02-18 23:51:00,33.7,17.5,30.13,SSW,196,0.0,2.0,51,0.00,,,0.00,Wunderground v.1.15,2013-02-19 04:51:00,
2013-02-18 23:58:00,33.7,17.5,30.13,SSW,200,0.0,4.0,51,0.00,,,0.00,Wunderground v.1.15,2013-02-19 04:58:00,